Location: Morosaglia
(42.4360°N, 9.3069°E)
Time: 01:45:54
(UTC+00:00)

STARLINK-57 - Pass Details

Date: 07 June 2020
Orbit: 434 x 435 km, 53.0° (Epoch: 05 July)

Event Time Altitude Azimuth Distance (km) Brightness Sun altitude
Exits shadow 00:26:48 - 100° (E) 1,905 6.4 -23.1°
Enters shadow 01:24:27 -68° 233° (SW) 12,275 10.4 -18.9°
Maximum altitude 02:01:25 65° 140° (SE) 482 3.2 -15.1°
